OE1HTB-13 Weather Reports


time (UTC)temp
C
wind
direction
speed
KPH
gust
KPH
rain 1hr
cm
rain 24hr
cm
rain mn
cm
humidity
%
barometer
mb
20260503034612 9 128 1.6 12.9 0.00 0.00 0.00 70 1017.3
20260503033112 9 183 1.6 4.8 0.00 0.00 0.00 71 1017.3
20260503031612 9 249 1.6 3.2 0.00 0.00 0.00 72 1017.2
20260503030111 9 339 3.2 6.4 0.00 0.00 0.00 71 1017.3
20260503024612 10 211 1.6 4.8 0.00 0.00 0.00 69 1017.3
20260503023111 10 78 4.8 16.1 0.00 0.00 0.00 66 1017.4
20260503021611 11 184 1.6 4.8 0.00 0.00 0.00 62 1017.0
20260503020111 11 184 1.6 3.2 0.00 0.00 0.00 62 1017.0
20260503014611 11 213 0.0 3.2 0.00 0.00 0.00 61 1017.0
20260503013111 11 303 0.0 3.2 0.00 0.00 0.00 62 1017.0
20260503011611 11 327 3.2 4.8 0.00 0.00 0.00 61 1017.1
20260503010110 12 327 3.2 4.8 0.00 0.00 0.00 61 1017.2
20260503004612 12 311 3.2 3.2 0.00 0.00 0.00 60 1017.2
20260503003110 12 311 3.2 4.8 0.00 0.00 0.00 59 1017.3
20260503001610 12 311 3.2 4.8 0.00 0.00 0.00 60 1017.4
20260503000110 12 311 3.2 4.8 0.00 0.00 0.00 61 1017.5
20260502234610 12 311 3.2 4.8 0.00 0.00 0.00 59 1017.7
20260502233109 13 331 1.6 4.8 0.00 0.00 0.00 59 1017.8
20260502231609 13 306 1.6 4.8 0.00 0.00 0.00 58 1017.9
20260502230109 13 320 3.2 4.8 0.00 0.00 0.00 58 1018.0
20260502224609 13 323 3.2 4.8 0.00 0.00 0.00 58 1018.1
20260502223114 13 320 3.2 4.8 0.00 0.00 0.00 58 1018.2
20260502221614 13 322 3.2 4.8 0.00 0.00 0.00 58 1018.3
20260502220114 13 325 3.2 4.8 0.00 0.00 0.00 56 1018.3
20260502214613 13 318 3.2 4.8 0.00 0.00 0.00 56 1018.4
20260502213114 13 319 3.2 4.8 0.00 0.00 0.00 56 1018.4
20260502211613 13 314 3.2 6.4 0.00 0.00 0.00 56 1018.5
20260502210113 13 317 3.2 4.8 0.00 0.00 0.00 55 1018.6
20260502204613 13 327 1.6 3.2 0.00 0.00 0.00 55 1018.8
20260502203113 14 338 3.2 4.8 0.00 0.00 0.00 53 1018.9
20260502201613 14 320 3.2 4.8 0.00 0.00 0.00 53 1019.0
20260502200113 15 320 4.8 6.4 0.00 0.00 0.00 52 1019.0
20260502194613 15 323 3.2 4.8 0.00 0.00 0.00 52 1019.1
20260502193114 15 313 3.2 4.8 0.00 0.00 0.00 51 1019.2
20260502191613 15 313 3.2 4.8 0.00 0.00 0.00 51 1019.2
20260502190113 15 313 3.2 4.8 0.00 0.00 0.00 50 1019.2
20260502184612 15 313 3.2 4.8 0.00 0.00 0.00 50 1019.1
20260502183112 16 321 3.2 4.8 0.00 0.00 0.00 48 1019.0
20260502181612 16 324 3.2 4.8 0.00 0.00 0.00 45 1018.8
20260502180113 16 324 3.2 4.8 0.00 0.00 0.00 48 1018.7
20260502170112 17 321 3.2 4.8 0.00 0.00 0.00 47 1018.8
20260502163113 18 325 1.6 4.8 0.00 0.00 0.00 43 1019.0
20260502161611 20 323 1.6 8.0 0.00 0.00 0.00 40 1019.1
20260502160110 20 315 1.6 4.8 0.00 0.00 0.00 38 1019.3
20260502151610 22 273 3.2 9.7 0.00 0.00 0.00 30 1019.7
20260502150110 24 103 3.2 8.0 0.00 0.00 0.00 28 1019.9
20260502140114 24 71 4.8 11.3 0.00 0.00 0.00 30 1020.4
20260502130114 24 54 3.2 8.0 0.00 0.00 0.00 31 1021.0
20260502123114 23 350 4.8 16.1 0.00 0.00 0.00 33 1021.6
20260502121614 23 221 4.8 9.7 0.00 0.00 0.00 32 1021.7
20260502120114 23 68 3.2 9.7 0.00 0.00 0.00 36 1022.0
20260502114613 22 104 4.8 16.1 0.00 0.00 0.00 36 1022.2
20260502113113 23 238 4.8 12.9 0.00 0.00 0.00 33 1022.4
20260502111613 21 273 4.8 12.9 0.00 0.00 0.00 36 1022.5
20260502110113 22 88 4.8 14.5 0.00 0.00 0.00 36 1022.7
20260502104614 23 86 6.4 19.3 0.00 0.00 0.00 32 1022.9
20260502103112 21 9 9.7 22.5 0.00 0.00 0.00 33 1023.1
20260502101612 21 18 6.4 17.7 0.00 0.00 0.00 34 1023.3
20260502100112 22 5 3.2 8.0 0.00 0.00 0.00 41 1023.5
20260502090112 20 117 4.8 11.3 0.00 0.00 0.00 37 1024.0
20260502070111 17 269 3.2 12.9 0.00 0.00 0.00 48 1024.5
20260502064610 16 315 4.8 11.3 0.00 0.00 0.00 53 1024.5
20260502063110 15 5 4.8 11.3 0.00 0.00 0.00 54 1024.5
20260502061610 15 19 4.8 11.3 0.00 0.00 0.00 56 1024.5
20260502060110 14 15 3.2 11.3 0.00 0.00 0.00 57 1024.4
20260502054610 14 350 4.8 9.7 0.00 0.00 0.00 58 1024.4
20260502053110 12 347 3.2 6.4 0.00 0.00 0.00 63 1024.5
20260502051610 11 325 3.2 6.4 0.00 0.00 0.00 66 1024.4
20260502050111 11 343 4.8 8.0 0.00 0.00 0.00 67 1024.4
20260502044609 10 346 4.8 9.7 0.00 0.00 0.00 68 1024.3
20260502043114 10 350 6.4 12.9 0.00 0.00 0.00 67 1024.3
20260502040114 9 327 4.8 9.7 0.00 0.00 0.00 68 1024.2